SCP
-0 -0 -0 -0 -0 -0 -0 -0 -0 -0 -0 -0 -0 -0 -0 -0 -0 0 0 0 0 0 0 0 0 0 0 0 0 -0 -0 -0 -0
-0 -0 -0 -0 -0 -0 -0 -0 -0 -0 -0 -0 -0 -0 -0 0 0 0 0 0 0 0 0 0 0 0 0 0 0 0 0 -0 0
0 -0 -0 -0 -0 -0 -0 -0 -0 -0 -0 -0 -0 -0 -0 -0 0 0 0 0 0 0 0 0 1 0 0 0 0 0 0 0 0
0 0 -0 -0 -0 -0 -0 -0 -0 -0 -0 -0 -0 0 -0 -0 -0 0 0 0 0 0 0 0 1 0 0 0 0 0 0 0 0
0 0 0 -0 -0 -0 -0 -0 -0 -0 -0 -0 -0 0 0 0 -0 -0 -0 0 0 0 0 0 0 1 0 0 0 0 0 0 0
0 0 0 -0 -0 -0 -0 -0 -0 -0 -0 -0 -0 -0 0 0 0 0 0 0 0 0 0 0 0 0 1 0 0 0 0 0 0
0 0 0 0 -0 -0 -0 -0 -0 -0 -0 0 -0 -0 0 0 0 0 0 0 0 0 0 0 0 0 1 0 0 0 0 0 0
-0 0 -0 -0 -0 -0 -0 -0 -0 -0 0 -0 0 0 0 0 1 1 2 1 1 1 1 1 1 0 0 0 0 0 1 1 1
0 -0 0 -0 -0 -0 -0 -0 -0 -0 0 0 0 0 0 0 0 0 1 1 1 1 1 1 1 1 1 1 0 0 0 0 0
0 0 0 0 0 -0 0 -0 -0 -0 -0 0 0 0 0 0 0 0 1 1 1 1 1 1 1 1 1 1 1 0 0 0 0
0 0 0 0 0 0 0 0 0 0 -0 -0 -0 0 0 0 0 0 0 0 0 1 1 1 1 1 1 1 2 1 0 0 1
0 0 0 1 1 1 1 0 1 0 0 0 0 0 0 0 0 0 0 0 0 0 0 1 0 0 1 1 1 0 0 0 1
0 0 0 1 1 1 1 1 1 1 0 0 0 0 0 0 0 0 0 0 0 0 0 0 0 0 0 0 1 0 0 0 1
1 0 1 1 1 1 1 1 1 1 0 0 0 0 0 0 0 0 0 0 0 0 0 0 0 0 0 0 0 0 0 0 1
1 0 1 1 1 1 0 1 1 1 1 1 1 1 1 0 0 0 0 0 0 0 0 0 0 0 0 0 0 0 0 0 0
1 1 0 1 1 1 1 1 1 1 2 1 1 1 1 0 0 0 0 0 0 0 0 0 0 0 0 0 0 0 0 0 0
3 2 1 0 1 1 2 2 2 2 1 1 1 1 0 0 0 0 0 0 0 0 0 0 0 0 0 0 0 0 0 0 0
3 3 2 1 2 4 3 2 3 2 1 1 1 0 0 0 0 0 0 0 0 0 0 0 0 0 0 0 0 0 0 0 0
2 3 2 2 1 8 6 5 3 2 1 1 0 0 0 0 0 0 0 0 0 0 0 0 0 0 0 0 0 0 0 0 0
2 2 2 2 4 6 7 5 3 2 2 1 0 0 0 0 0 0 0 0 0 0 0 0 0 0 0 0 0 0 0 0 0
Wind_Speed_500mb
49 55 57 56 53 53 50 53 53 50 51 48 46 47 46 42 38 31 34 31 27 27 18 27 23 18 20 21 20 19 18 19 18
26 46 57 56 54 58 54 53 54 55 54 50 48 48 45 45 43 40 33 35 27 34 36 27 23 19 23 23 25 25 24 20 20
13 26 44 52 55 56 54 53 53 52 52 51 49 50 47 44 43 43 40 35 38 34 33 35 29 20 25 26 23 23 27 23 25
16 20 34 49 53 51 53 52 51 51 52 51 48 50 49 47 44 42 41 41 39 41 37 35 36 35 29 26 24 25 25 26 32
18 20 27 38 48 50 49 52 50 50 51 50 48 50 53 49 48 43 41 41 41 40 39 38 38 39 38 33 32 31 30 30 27
24 25 31 37 42 45 49 50 49 46 51 50 48 48 49 48 48 48 44 43 41 44 44 42 38 40 43 42 37 36 36 36 32
34 33 36 40 42 44 46 48 50 51 49 50 48 47 45 47 47 48 45 43 43 42 47 46 45 46 47 42 41 40 38 37 36
41 42 42 42 43 43 44 45 45 47 48 47 48 46 43 44 46 49 47 47 48 46 49 48 44 47 47 47 43 42 44 44 42
40 47 48 46 44 43 43 42 42 41 41 42 43 46 41 39 42 46 51 53 51 54 54 54 52 53 53 49 44 44 47 49 41
38 45 48 49 48 45 41 40 39 40 41 39 39 39 36 32 34 35 41 41 48 47 47 44 46 54 52 48 50 50 52 54 53
37 37 44 48 46 42 39 37 36 35 37 38 37 36 35 34 33 34 35 37 35 36 36 37 40 43 47 51 53 52 56 61 58
17 31 42 47 47 46 44 43 42 40 37 34 32 32 31 29 29 29 29 32 33 36 38 41 42 44 47 53 55 54 59 56 50
10 28 39 45 45 44 45 46 45 42 38 33 30 27 25 23 22 22 27 31 28 27 26 28 32 34 36 42 38 43 46 48 44
1 20 34 43 46 46 46 48 46 44 39 35 30 29 25 23 25 22 19 19 21 22 22 23 23 27 31 32 34 34 32 37 44
6 10 33 42 46 47 48 47 44 42 41 37 33 27 31 24 22 16 15 20 22 23 25 22 20 16 20 27 36 35 36 39 41
7 8 23 40 47 48 48 50 48 46 44 43 40 32 31 24 21 21 19 15 16 15 17 15 15 14 22 23 28 29 33 36 36
17 13 17 40 49 52 49 52 50 47 46 40 35 32 29 27 22 19 15 9 11 13 17 17 15 15 15 21 16 11 10 15 19
19 16 21 32 50 59 53 48 47 46 41 37 33 29 27 22 19 18 14 17 15 9 25 23 17 15 17 10 7 19 12 9 8
24 18 20 26 39 61 61 52 47 45 41 36 34 28 21 17 17 16 12 8 14 13 8 8 9 11 13 18 15 16 16 16 16
26 21 19 22 37 54 61 58 49 43 41 34 28 23 21 16 17 16 18 16 12 7 11 10 10 13 15 18 19 19 18 18 18
Wind_Direction_500mb
189 207 207 201 194 195 194 195 195 195 199 199 201 204 209 214 213 216 220 228 223 227 224 236 219 241 228 244 241 250 251 254 254
193 193 199 209 193 196 196 197 197 198 200 201 203 208 209 212 217 211 217 217 227 217 219 231 233 206 232 245 245 245 244 253 242
197 200 197 201 193 198 197 201 199 200 202 204 202 207 209 211 212 216 210 217 216 220 227 235 234 231 232 236 235 256 247 233 248
165 191 198 196 195 194 198 201 200 203 204 206 205 209 209 209 214 214 214 214 222 223 223 224 230 230 228 232 238 242 242 243 251
151 172 183 191 196 195 197 200 202 199 204 205 209 211 209 210 211 213 218 220 222 225 226 227 229 229 235 235 235 239 242 248 236
163 169 171 181 189 194 195 198 201 203 203 207 209 210 209 211 214 213 217 220 220 226 228 227 229 237 232 233 237 238 241 244 246
177 180 176 180 185 191 195 197 200 202 204 204 205 209 208 212 213 214 218 221 224 226 231 231 227 229 235 240 237 236 240 243 245
183 186 184 185 184 188 192 196 199 200 200 203 201 208 206 211 214 215 217 222 225 229 234 234 235 233 229 229 237 239 236 236 239
194 190 194 192 192 192 196 198 198 200 199 201 199 201 205 209 211 217 223 222 222 229 232 231 242 237 237 232 230 240 238 235 237
203 201 199 194 193 193 193 194 193 195 193 193 194 198 204 213 214 217 223 229 235 236 237 240 240 238 239 238 230 231 239 240 236
190 205 197 193 190 187 187 186 184 183 184 188 189 195 201 209 218 223 226 229 231 233 230 234 239 241 242 242 241 233 237 242 242
216 189 195 193 190 183 178 177 175 174 176 184 189 197 202 209 218 219 220 224 228 237 246 250 253 253 254 253 250 244 237 237 242
213 179 183 185 182 180 175 174 173 173 176 182 187 192 194 194 204 218 229 233 236 240 250 258 255 261 260 248 256 254 241 234 234
180 189 178 179 178 179 178 175 173 170 174 178 180 181 181 188 195 199 209 227 237 241 246 255 268 267 262 250 250 248 244 240 235
44 197 174 183 182 181 179 174 175 173 172 172 172 172 177 183 205 184 223 229 237 253 258 265 280 273 277 256 248 250 248 251 243
322 251 209 195 193 186 182 180 177 175 174 172 174 178 176 187 192 194 216 222 244 244 274 246 242 247 247 255 252 257 261 259 260
304 259 220 209 199 191 187 184 180 176 175 174 169 170 171 188 186 195 201 221 236 227 229 245 229 232 230 254 255 266 286 291 277
306 272 244 220 205 191 189 186 180 175 170 169 168 172 176 176 184 189 208 197 205 211 230 230 231 207 225 229 246 241 234 210 186
297 282 256 228 211 185 181 180 177 167 162 164 164 164 174 182 195 195 198 231 227 223 223 198 190 186 180 178 174 143 129 119 109
281 270 247 222 209 196 177 169 167 161 152 155 160 160 168 184 186 202 202 209 216 223 206 188 175 163 156 159 151 141 131 111 85
Wind_Speed_850mb
49 55 57 56 53 53 50 53 53 50 51 48 46 47 46 42 38 31 34 31 27 27 18 27 23 18 20 21 20 19 18 19 18
26 46 57 56 54 58 54 53 54 55 54 50 48 48 45 45 43 40 33 35 27 34 36 27 23 19 23 23 25 25 24 20 20
13 26 44 52 55 56 54 53 53 52 52 51 49 50 47 44 43 43 40 35 38 34 33 35 29 20 25 26 23 23 27 23 25
16 20 34 49 53 51 53 52 51 51 52 51 48 50 49 47 44 42 41 41 39 41 37 35 36 35 29 26 24 25 25 26 32
18 20 27 38 48 50 49 52 50 50 51 50 48 50 53 49 48 43 41 41 41 40 39 38 38 39 38 33 32 31 30 30 27
24 25 31 37 42 45 49 50 49 46 51 50 48 48 49 48 48 48 44 43 41 44 44 42 38 40 43 42 37 36 36 36 32
34 33 36 40 42 44 46 48 50 51 49 50 48 47 45 47 47 48 45 43 43 42 47 46 45 46 47 42 41 40 38 37 36
41 42 42 42 43 43 44 45 45 47 48 47 48 46 43 44 46 49 47 47 48 46 49 48 44 47 47 47 43 42 44 44 42
40 47 48 46 44 43 43 42 42 41 41 42 43 46 41 39 42 46 51 53 51 54 54 54 52 53 53 49 44 44 47 49 41
38 45 48 49 48 45 41 40 39 40 41 39 39 39 36 32 34 35 41 41 48 47 47 44 46 54 52 48 50 50 52 54 53
37 37 44 48 46 42 39 37 36 35 37 38 37 36 35 34 33 34 35 37 35 36 36 37 40 43 47 51 53 52 56 61 58
17 31 42 47 47 46 44 43 42 40 37 34 32 32 31 29 29 29 29 32 33 36 38 41 42 44 47 53 55 54 59 56 50
10 28 39 45 45 44 45 46 45 42 38 33 30 27 25 23 22 22 27 31 28 27 26 28 32 34 36 42 38 43 46 48 44
1 20 34 43 46 46 46 48 46 44 39 35 30 29 25 23 25 22 19 19 21 22 22 23 23 27 31 32 34 34 32 37 44
6 10 33 42 46 47 48 47 44 42 41 37 33 27 31 24 22 16 15 20 22 23 25 22 20 16 20 27 36 35 36 39 41
7 8 23 40 47 48 48 50 48 46 44 43 40 32 31 24 21 21 19 15 16 15 17 15 15 14 22 23 28 29 33 36 36
17 13 17 40 49 52 49 52 50 47 46 40 35 32 29 27 22 19 15 9 11 13 17 17 15 15 15 21 16 11 10 15 19
19 16 21 32 50 59 53 48 47 46 41 37 33 29 27 22 19 18 14 17 15 9 25 23 17 15 17 10 7 19 12 9 8
24 18 20 26 39 61 61 52 47 45 41 36 34 28 21 17 17 16 12 8 14 13 8 8 9 11 13 18 15 16 16 16 16
26 21 19 22 37 54 61 58 49 43 41 34 28 23 21 16 17 16 18 16 12 7 11 10 10 13 15 18 19 19 18 18 18
Wind_Direction_850mb
189 207 207 201 194 195 194 195 195 195 199 199 201 204 209 214 213 216 220 228 223 227 224 236 219 241 228 244 241 250 251 254 254
193 193 199 209 193 196 196 197 197 198 200 201 203 208 209 212 217 211 217 217 227 217 219 231 233 206 232 245 245 245 244 253 242
197 200 197 201 193 198 197 201 199 200 202 204 202 207 209 211 212 216 210 217 216 220 227 235 234 231 232 236 235 256 247 233 248
165 191 198 196 195 194 198 201 200 203 204 206 205 209 209 209 214 214 214 214 222 223 223 224 230 230 228 232 238 242 242 243 251
151 172 183 191 196 195 197 200 202 199 204 205 209 211 209 210 211 213 218 220 222 225 226 227 229 229 235 235 235 239 242 248 236
163 169 171 181 189 194 195 198 201 203 203 207 209 210 209 211 214 213 217 220 220 226 228 227 229 237 232 233 237 238 241 244 246
177 180 176 180 185 191 195 197 200 202 204 204 205 209 208 212 213 214 218 221 224 226 231 231 227 229 235 240 237 236 240 243 245
183 186 184 185 184 188 192 196 199 200 200 203 201 208 206 211 214 215 217 222 225 229 234 234 235 233 229 229 237 239 236 236 239
194 190 194 192 192 192 196 198 198 200 199 201 199 201 205 209 211 217 223 222 222 229 232 231 242 237 237 232 230 240 238 235 237
203 201 199 194 193 193 193 194 193 195 193 193 194 198 204 213 214 217 223 229 235 236 237 240 240 238 239 238 230 231 239 240 236
190 205 197 193 190 187 187 186 184 183 184 188 189 195 201 209 218 223 226 229 231 233 230 234 239 241 242 242 241 233 237 242 242
216 189 195 193 190 183 178 177 175 174 176 184 189 197 202 209 218 219 220 224 228 237 246 250 253 253 254 253 250 244 237 237 242
213 179 183 185 182 180 175 174 173 173 176 182 187 192 194 194 204 218 229 233 236 240 250 258 255 261 260 248 256 254 241 234 234
180 189 178 179 178 179 178 175 173 170 174 178 180 181 181 188 195 199 209 227 237 241 246 255 268 267 262 250 250 248 244 240 235
44 197 174 183 182 181 179 174 175 173 172 172 172 172 177 183 205 184 223 229 237 253 258 265 280 273 277 256 248 250 248 251 243
322 251 209 195 193 186 182 180 177 175 174 172 174 178 176 187 192 194 216 222 244 244 274 246 242 247 247 255 252 257 261 259 260
304 259 220 209 199 191 187 184 180 176 175 174 169 170 171 188 186 195 201 221 236 227 229 245 229 232 230 254 255 266 286 291 277
306 272 244 220 205 191 189 186 180 175 170 169 168 172 176 176 184 189 208 197 205 211 230 230 231 207 225 229 246 241 234 210 186
297 282 256 228 211 185 181 180 177 167 162 164 164 164 174 182 195 195 198 231 227 223 223 198 190 186 180 178 174 143 129 119 109
281 270 247 222 209 196 177 169 167 161 152 155 160 160 168 184 186 202 202 209 216 223 206 188 175 163 156 159 151 141 131 111 85